Flag for Germany Weather past 2 weeks in Winsen (Luhe), Lower Saxony, Germany

Now
61 °F

Clear.


Feels Like: 61 °F
Forecast: 55 / 60 °F
Wind: 8 mph from West

Location: Hamburg-Fuhlsbuettel

Current Time: Jul 8, 2015 at 4:13:33 AM

Latest Report: Jul 8, 2015 at 3:20 AM


Visibility: 10 mi

Pressure: 29.62 "Hg

Humidity: 88%

Dew point: 57 °F

Location of Winsen (Luhe)Location

Historic Weather in Winsen (Luhe) — Graph

°F

Winsen (Luhe) temperature yesterday

Maximum temperature yesterday: 82 °F (at 2:50 PM)
Minimum temperature yesterday: 54 °F (at 2:50 AM)
Average temperature yesterday: 68 °F

Past Weeks' High & Low Weather Summary

 TemperatureHumidityPressure
High97 °F (Jul 4, 3:20 PM)100% (Jun 23, 4:50 AM)30.27 "Hg (Jun 23, 4:50 AM)
Low50 °F (Jun 23, 4:50 AM)23% (Jul 4, 3:50 PM)29.59 "Hg (Jul 7, 9:20 PM)
Average68 °F68%30.06 "Hg
* Reported Jun 23 3:20 AM — Jul 8 3:20 AM, Winsen (Luhe), Weather by CustomWeather, © 2015

Note: Actual official high and low records may vary slightly from our data, if they occured in-between our weather recording intervals... More about our weather records

Advertising

Winsen (Luhe) weather history for previous 24 hours

 ConditionsComfort  
Time TempWeatherWind HumidityBarometerVisibility
3:20 AM
Wed, Jul 8
61 °FClear.8 mph88%29.62 "Hg10 mi
2:50 AM63 °FClear.8 mph83%29.62 "Hg10 mi
2:20 AM63 °FClear.9 mph83%29.62 "Hg10 mi
1:50 AM64 °FPassing clouds.10 mph78%29.59 "HgN/A
1:20 AM64 °FPassing clouds.9 mph83%29.59 "HgN/A
12:50 AM64 °FClear.8 mph83%29.59 "Hg10 mi
12:20 AM64 °FPassing clouds.9 mph88%29.62 "HgN/A
11:20 PM
Tue, Jul 7
66 °FPassing clouds.10 mph94%29.62 "HgN/A
10:50 PM66 °FPassing clouds.7 mph88%29.59 "HgN/A
10:20 PM66 °FThundershowers. Broken clouds.9 mph88%29.62 "HgN/A
9:50 PM68 °FThundershowers. Partly sunny.9 mph88%29.59 "HgN/A
9:20 PM66 °FScattered clouds.9 mph88%29.59 "HgN/A
8:50 PM68 °FSprinkles. Broken clouds.8 mph88%29.62 "HgN/A
8:20 PM68 °FLots of rain. Scattered clouds.7 mph83%29.68 "HgN/A
7:50 PM72 °FThunderstorms. Scattered clouds.5 mph65%29.65 "Hg5 mi
7:20 PM75 °FSprinkles. Scattered clouds.8 mph57%29.65 "HgN/A
6:50 PM75 °FSunny.8 mph57%29.68 "Hg10 mi
6:20 PM77 °FSunny.6 mph57%29.68 "Hg10 mi
5:50 PM73 °FLight rain. Clear.6 mph69%29.71 "HgN/A
5:20 PM77 °FLight rain. Clear.5 mph54%29.74 "HgN/A
4:50 PM77 °FPassing clouds.3 mph54%29.74 "HgN/A
4:20 PM79 °FSunny.1 mph51%29.74 "Hg10 mi
3:50 PM79 °FSunny.3 mph42%29.77 "Hg10 mi
3:20 PM79 °FPassing clouds.7 mph42%29.77 "HgN/A
2:50 PM82 °FPassing clouds.8 mph35%29.77 "HgN/A
2:20 PM81 °FPassing clouds.9 mph34%29.80 "HgN/A
1:50 PM81 °FSunny.10 mph32%29.80 "Hg10 mi
1:20 PM81 °FPassing clouds.12 mph34%29.83 "HgN/A
12:50 PM79 °FPassing clouds.9 mph34%29.83 "HgN/A
12:20 PM81 °FPassing clouds.8 mph32%29.83 "HgN/A
11:50 AM79 °FPassing clouds.9 mph34%29.86 "HgN/A
11:20 AM79 °FPassing clouds.10 mph34%29.86 "HgN/A
10:50 AM77 °FPassing clouds.10 mph42%29.89 "HgN/A
10:20 AM77 °FPassing clouds.9 mph44%29.89 "HgN/A
9:50 AM73 °FPassing clouds.9 mph53%29.92 "HgN/A
9:20 AM72 °FSunny.9 mph57%29.92 "Hg10 mi
8:50 AM70 °FPassing clouds.8 mph60%29.92 "HgN/A
8:20 AM66 °FPassing clouds.7 mph68%29.95 "HgN/A
7:50 AM64 °FPassing clouds.6 mph73%29.95 "HgN/A
7:20 AM63 °FPassing clouds.6 mph77%29.95 "HgN/A
6:50 AM61 °FPassing clouds.6 mph77%29.98 "HgN/A
6:20 AM59 °FPassing clouds.7 mph88%29.98 "HgN/A
5:50 AM57 °FClear.2 mph88%29.98 "Hg10 mi
5:20 AM57 °FFog.5 mph88%29.98 "HgN/A
4:50 AM55 °FPassing clouds.3 mph94%30.01 "HgN/A
4:20 AM54 °FClear.1 mph94%30.01 "Hg10 mi
Weather by CustomWeather, © 2015

See weather overviewHow to use our weather pages